Ocala, FL

9:41 AM EDT on September 27, 2016 (GMT -0400)
Ocala Regional-Taylor

Weather History for KOCF - December, 2013

Change the Weather History Date:

Wednesday, December 4, 2013

  Actual Average Record
Temperature  
Mean Temperature 68 °F -  
Max Temperature 80 °F 70 °F 82 °F (1998)
Min Temperature 55 °F 47 °F 33 °F (2010)
Cooling Degree Days 2    
Growing Degree Days 18 (Base 50)    
Moisture  
Dew Point 54 °F    
Average Humidity 76    
Maximum Humidity 94    
Minimum Humidity 51    
Precipitation  
Precipitation 0.00 in - - ()
Sea Level Pressure  
Sea Level Pressure 30.04 in    
Wind  
Wind Speed 1 mph (SSW)    
Max Wind Speed 8 mph    
Max Gust Speed -    
Visibility 8 miles    
Events      
Averages and records for this station are not official NWS values.
T = Trace of Precipitation, MM = Missing Value Source: NWS Daily Summary

Daily Weather History Graph

Daily Weather History Graph

Search for Another Location

Airport or City:

Trip Planner

Search our weather history database for the weather conditions in past years. The results will help you decide how hot, cold, wet, or windy it might be!

Date:

Astronomy

Dec. 04, 2013 Rise Set
Actual Time 7:07 AM EST 5:30 PM EST
Civil Twilight 6:42 AM EST 5:56 PM EST
Nautical Twilight 6:12 AM EST 6:25 PM EST
Astronomical Twilight 5:43 AM EST 6:54 PM EST
Moon 8:37 AM EST (12/4) 7:35 PM EST (12/4)
Length of Visible Light 11h 14m
Length of Day
10h 22m
Waxing Crescent, 4% of the Moon is Illuminated
Dec 4
Waxing Crescent
Dec 9
First Quarter
Dec 17
Full
Dec 25
Last Quarter
Jan 1
New

Hourly Weather History & Observations

Time (EST) Temp. Heat Index Dew Point Humidity Pressure Visibility Wind Dir Wind Speed Gust Speed Precip Events Conditions
12:15 AM 57.2 °F - 51.8 °F 82% 29.99 in 10.0 mi Calm Calm - N/A   Clear
12:35 AM 57.2 °F - 51.8 °F 82% 29.99 in 10.0 mi South 3.5 mph - N/A   Clear
12:55 AM 59.0 °F - 51.8 °F 77% 29.98 in 10.0 mi South 3.5 mph - N/A   Clear
1:15 AM 59.0 °F - 53.6 °F 82% 29.97 in 10.0 mi Calm Calm - N/A   Clear
1:35 AM 59.0 °F - 53.6 °F 82% 29.97 in 10.0 mi Calm Calm - N/A   Clear
1:55 AM 57.2 °F - 51.8 °F 82% 29.98 in 9.0 mi Calm Calm - N/A   Clear
2:15 AM 55.4 °F - 48.2 °F 77% 29.98 in 9.0 mi Calm Calm - N/A   Clear
2:35 AM 57.2 °F - 50.0 °F 77% 29.98 in 4.0 mi Calm Calm - N/A   Clear
2:55 AM 55.4 °F - 48.2 °F 77% 29.98 in 10.0 mi Calm Calm - N/A   Clear
3:15 AM 55.4 °F - 48.2 °F 77% 29.98 in 7.0 mi SSW 3.5 mph - N/A   Clear
3:35 AM 57.2 °F - 51.8 °F 82% 29.97 in 1.0 mi South 3.5 mph - N/A   Clear
3:55 AM 55.4 °F - 50.0 °F 82% 29.98 in 0.8 mi Calm Calm - N/A   Unknown
4:15 AM 57.2 °F - 51.8 °F 82% 29.99 in 0.2 mi Calm Calm - N/A   Unknown
4:35 AM 57.2 °F - 50.0 °F 77% 29.99 in 0.8 mi Calm Calm - N/A   Unknown
4:55 AM 55.4 °F - 48.2 °F 77% 30.00 in 4.0 mi Calm Calm - N/A   Clear
5:15 AM 55.4 °F - 48.2 °F 77% 30.01 in 1.8 mi Calm Calm - N/A   Clear
5:35 AM 55.4 °F - 48.2 °F 77% 30.01 in 9.0 mi Calm Calm - N/A   Clear
5:55 AM 55.4 °F - 48.2 °F 77% 30.02 in 0.8 mi Calm Calm - N/A   Unknown
6:15 AM 55.4 °F - 48.2 °F 77% 30.02 in 0.8 mi Calm Calm - N/A   Unknown
6:35 AM 55.4 °F - 48.2 °F 77% 30.03 in 0.8 mi Calm Calm - N/A   Unknown
6:50 AM 55.4 °F - 51.8 °F 88% 30.03 in 1.0 mi Calm Calm - N/A   Clear
7:50 AM 55.4 °F - 53.6 °F 94% 30.05 in 5.0 mi Calm Calm - N/A   Clear
8:50 AM 64.4 °F - 57.2 °F 77% 30.06 in 8.0 mi South 5.8 mph - N/A   Clear
9:50 AM 69.8 °F - 60.8 °F 73% 30.08 in 10.0 mi South 5.8 mph - N/A   Clear
10:50 AM 73.4 °F - 62.6 °F 69% 30.09 in 10.0 mi SSW 4.6 mph - N/A   Partly Cloudy
11:50 AM 75.2 °F - 60.8 °F 61% 30.08 in 10.0 mi SW 4.6 mph - N/A   Scattered Clouds
12:50 PM 78.8 °F - 64.4 °F 61% 30.05 in 10.0 mi SW 8.1 mph - N/A   Mostly Cloudy
1:50 PM 80.6 °F 81.8 °F 62.6 °F 54% 30.03 in 10.0 mi Calm Calm - N/A   Mostly Cloudy
2:50 PM 78.8 °F - 59.0 °F 51% 30.03 in 10.0 mi WSW 5.8 mph - N/A   Scattered Clouds
3:50 PM 75.2 °F - 60.8 °F 61% 30.03 in 10.0 mi Calm Calm - N/A   Scattered Clouds
4:50 PM 78.8 °F - 60.8 °F 54% 30.04 in 10.0 mi Calm Calm - N/A   Scattered Clouds
5:50 PM 71.6 °F - 60.8 °F 69% 30.05 in 10.0 mi WSW 4.6 mph - N/A   Partly Cloudy
6:50 PM 69.8 °F - 59.0 °F 68% 30.06 in 10.0 mi Calm Calm - N/A   Clear
7:55 PM 64.4 °F - 57.2 °F 77% 30.07 in 10.0 mi Calm Calm - N/A   Clear
8:15 PM 64.4 °F - 57.2 °F 77% 30.08 in 10.0 mi Calm Calm - N/A   Clear
8:35 PM 64.4 °F - 57.2 °F 77% 30.08 in 10.0 mi Calm Calm - N/A   Clear
8:55 PM 64.4 °F - 57.2 °F 77% 30.08 in 10.0 mi Calm Calm - N/A   Clear
9:15 PM 62.6 °F - 55.4 °F 77% 30.09 in 10.0 mi Calm Calm - N/A   Clear
9:35 PM 62.6 °F - 55.4 °F 77% 30.09 in 10.0 mi Calm Calm - N/A   Clear
9:55 PM 62.6 °F - 55.4 °F 77% 30.08 in 10.0 mi Calm Calm - N/A   Clear
10:15 PM 62.6 °F - 55.4 °F 77% 30.08 in 9.0 mi Calm Calm - N/A   Clear
10:35 PM 62.6 °F - 55.4 °F 77% 30.10 in 8.0 mi Calm Calm - N/A   Clear
10:55 PM 60.8 °F - 55.4 °F 82% 30.10 in 9.0 mi Calm Calm - N/A   Clear
11:15 PM 60.8 °F - 53.6 °F 77% 30.10 in 8.0 mi Calm Calm - N/A   Clear
11:35 PM 60.8 °F - 55.4 °F 82% 30.11 in 7.0 mi Calm Calm - N/A   Clear
11:55 PM 59.0 °F - 53.6 °F 82% 30.11 in 9.0 mi Calm Calm - N/A   Clear